Location: Ferchesar
(52.6477°N, 12.4298°E)
Time: 10:15:34
(UTC+01:00)

Transit 2A - Pass Details

Date: 12 December 2021
Orbit: 591 x 966 km, 66.7° (Epoch: 26 January)

Event Time Altitude Azimuth Distance (km) Brightness Sun altitude
Exits shadow 03:53:14 25° 24° (NNE) 1,836 8.1 -37.8°
Drops below altitude 10° 03:57:53 10° 71° (ENE) 2,697 9.5 -37.1°
Sets 04:00:54 0° 84° (E) 3,615 10.5 -36.7°
